Location: Newark
(44.6768°N, 22.5302°E)
Time: 13:20:50
(UTC+00:00)

AO-92 - Pass Details

Date: 01 July 2022
Orbit: 470 x 481 km, 97.4° (Epoch: 07 August)

Event Time Altitude Azimuth Distance (km) Brightness Sun altitude
Exits shadow 19:43:36 15° 111° (ESE) 1,350 ? -11.9°
Maximum altitude 19:45:30 23° 68° (ENE) 1,058 ? -12.1°
Drops below altitude 10° 19:48:23 10° 15° (NNE) 1,668 ? -12.4°
Sets 19:50:44 0° 1° (N) 2,555 ? -12.7°
